This demonstration page uses our WeatherBlox Daily Observations layout. Learn more.

39.29038, -76.61219

Hourly Observations for March 31, 2019

Temp ( °F °C ) Dew Point ( °F °C ) Humidity (%) Winds ( mph kmh ) Pressure ( in mb ) Visibility ( mi km ) Precip ( " mm )
12:54 am 00:54 undefined 61 16.1 45 7.2 56 56 undefined N/A 29.74 1007 N/A 0 0
1:54 am 01:54 undefined 61 16.1 45 7.2 56 56 undefined N/A 29.72 1007 N/A 0 0
2:54 am 02:54 undefined 60 15.6 45 7.2 58 58 undefined N/A 29.7 1006 N/A 0 0
3:54 am 03:54 undefined 59 15 46 7.8 62 62 undefined N/A 29.67 1005 N/A 0 0
4:54 am 04:54 undefined 59 15 46 7.8 62 62 undefined N/A 29.65 1004 N/A 0 0
5:54 am 05:54 undefined 63 17.2 47 8.3 56 56 undefined N/A 29.66 1004 N/A 0 0
6:54 am 06:54 undefined 63 17.2 47 8.3 56 56 undefined N/A 29.68 1005 N/A 0 0
7:54 am 07:54 undefined 63 17.2 48 8.9 58 58 undefined N/A 29.69 1005 N/A 0 0
8:54 am 08:54 undefined 60 15.6 52 11.1 75 75 undefined N/A 29.68 1005 N/A 0.02 0.508
9:54 am 09:54 undefined 58 14.4 45 7.2 62 62 undefined N/A 29.75 1007 N/A 0.02 0.508
10:54 am 10:54 undefined 54 12.2 35 1.7 49 49 undefined N/A 29.79 1009 N/A 0 0
11:54 am 11:54 undefined 51 10.6 36 2.2 56 56 undefined N/A 29.82 1010 N/A 0 0
12:54 pm 12:54 undefined 52 11.1 32 0 47 47 undefined N/A 29.84 1011 N/A 0 0
1:54 pm 13:54 undefined 55 12.8 29 -1.7 37 37 undefined N/A 29.84 1011 N/A 0 0
2:54 pm 14:54 undefined 54 12.2 27 -2.8 35 35 undefined N/A 29.84 1011 N/A 0 0
3:54 pm 15:54 undefined 53 11.7 23 -5 31 31 undefined N/A 29.87 1011 N/A 0 0
4:54 pm 16:54 undefined 52 11.1 21 -6.1 30 30 undefined N/A 29.88 1012 N/A 0 0
5:54 pm 17:54 undefined 50 10 21 -6.1 32 32 undefined N/A 29.92 1013 N/A 0 0
6:54 pm 18:54 undefined 48 8.9 21 -6.1 34 34 undefined N/A 29.96 1014 N/A 0 0
7:54 pm 19:54 undefined 45 7.2 18 -7.8 34 34 undefined N/A 29.99 1016 N/A 0 0
8:54 pm 20:54 undefined 43 6.1 17 -8.3 35 35 undefined N/A 30.03 1017 N/A 0 0
9:54 pm 21:54 undefined 41 5 17 -8.3 38 38 undefined N/A 30.07 1018 N/A 0 0
10:54 pm 22:54 undefined 38 3.3 13 -10.6 36 36 undefined N/A 30.11 1020 N/A 0 0
11:54 pm 23:54 undefined 36 2.2 11 -11.7 35 35 undefined N/A 30.13 1020 N/A 0 0

Powered by AerisWeather